Location: Unspecified
(0.0000°N, 0.0000°E)
Time: 09:03:27
(UTC+00:00)

SL-12 R/B(2) - Visible Passes

Search period start: 28 November 2020 00:00
Search period end: 08 December 2020 00:00
Orbit: 1678 x 51280 km, 62.8° (Epoch: 21 November)

Date Brightness Start Highest point End Pass type
(mag) Time Alt. Az. Time Alt. Az. Time Alt. Az.
29 Nov 7.6 21:38:30 10° SSW 21:59:26 89° WNW 13:27:49 10° WSW visible
01 Dec 10.5 03:27:46 10° NE 04:55:12 14° NE 05:31:20 10° ENE visible
01 Dec 8.1 23:06:09 10° SW 23:33:50 54° WNW 07:44:03 10° NNW visible
03 Dec 9.8 01:28:31 10° NNE 06:46:12 36° ENE 07:20:58 10° ESE visible
04 Dec 8.5 00:40:04 10° W 01:18:48 28° WNW 05:10:06 10° NNW visible
04 Dec 8.6 21:48:42 10° NNE 08:27:21 65° ENE 08:51:40 10° SE daylight
06 Dec 7.6 18:20:02 10° SE 18:45:30 24° E 10:18:06 10° SSE daylight
